SCP
0 0 0 0 0 0 0 0 0 0 0 0 0 0 0 0 0 0 0 0 0 0 0 0 0 0 0 0 0 0 0 0 0 0 0 0 0 0 0 0 0 0 0
0 0 0 0 0 0 0 0 0 0 0 0 0 0 0 0 0 0 0 0 0 0 0 0 0 0 0 0 0 0 0 0 0 0 0 0 0 0 0 0 0 0 0
0 0 0 0 0 0 0 0 0 0 0 0 0 0 0 0 0 0 0 0 0 0 0 0 0 0 0 0 0 0 0 0 0 0 0 0 0 0 0 0 0 0 0
0 0 0 0 0 0 0 0 0 0 0 0 0 0 0 0 0 0 0 0 0 0 0 0 0 0 0 0 0 0 0 0 0 0 0 0 0 0 0 0 0 0 0
0 0 0 0 0 0 0 0 0 0 0 0 0 0 0 0 0 0 0 0 0 0 0 0 0 0 0 0 0 0 0 0 0 0 0 0 0 0 0 0 0 0 0
0 0 0 0 0 0 0 0 0 0 0 0 0 0 0 0 0 0 0 0 0 0 0 0 0 0 0 0 0 0 0 0 0 0 0 0 0 0 0 0 0 0 0
0 0 0 0 0 0 0 0 0 0 0 0 0 0 0 0 0 0 0 0 0 0 0 0 0 0 0 0 0 0 0 0 0 0 0 0 0 0 0 0 0 0 0
0 0 0 0 0 0 0 0 0 0 0 0 0 0 0 0 0 0 0 0 0 0 0 0 0 0 0 0 0 0 0 0 0 0 0 0 0 0 0 0 0 0 0
0 0 0 0 0 0 0 0 0 0 0 0 0 0 0 0 0 0 0 0 0 0 0 0 0 0 0 0 0 0 0 0 0 0 0 0 0 0 0 0 0 0 0
0 0 0 0 0 0 0 0 0 0 0 0 0 0 0 0 0 0 0 0 0 0 0 0 0 0 0 0 0 0 0 0 0 0 0 0 0 0 0 0 0 0 0
0 0 0 0 0 0 0 0 0 0 0 0 0 0 0 0 0 0 0 0 0 0 0 0 0 0 0 0 0 0 0 0 0 0 0 0 0 0 0 0 0 0 0
0 0 0 0 0 0 0 0 0 0 0 0 0 0 0 0 0 0 0 0 0 0 0 0 0 0 0 0 0 0 0 0 0 0 0 0 0 0 0 0 0 0 0
0 0 0 0 0 0 0 0 0 0 0 0 0 0 0 0 0 0 0 0 0 0 0 0 0 0 0 0 0 0 0 0 0 0 0 0 0 0 0 0 0 0 0
0 0 0 0 0 0 0 0 0 0 0 0 0 0 0 0 0 0 0 0 0 0 0 0 0 0 0 0 0 0 0 0 0 0 0 0 0 0 0 0 0 0 0
0 0 0 0 0 0 0 0 0 0 0 0 0 0 0 0 0 0 0 0 0 0 0 0 0 0 0 0 0 0 0 0 0 0 0 0 0 0 0 0 0 0 0
1 1 1 0 0 0 0 0 0 0 0 0 0 0 0 0 0 0 0 0 0 0 0 0 0 0 0 0 0 0 0 0 0 0 0 0 0 0 0 0 0 0 0
1 1 1 1 1 0 1 0 0 0 0 0 0 0 0 0 0 0 0 0 0 0 0 0 0 0 0 0 0 0 0 0 0 0 0 0 0 0 0 0 0 0 0
1 1 1 1 1 1 1 1 1 0 0 0 0 0 0 0 0 0 0 0 0 0 0 0 0 0 0 0 0 0 0 0 0 0 0 0 0 0 0 0 0 0 0
1 1 1 1 1 1 1 1 1 1 0 0 0 0 0 0 0 0 0 0 0 0 0 0 0 0 0 0 0 0 0 0 0 0 0 0 0 0 0 0 0 0 0
1 1 1 1 1 1 1 1 1 1 1 1 1 1 0 0 0 0 0 0 0 0 0 0 0 0 0 0 0 0 0 0 0 0 0 0 0 0 0 0 0 0 0
1 1 1 1 1 1 1 1 1 1 1 1 1 1 0 0 0 0 0 0 0 0 0 0 0 0 0 0 0 0 0 0 0 0 0 0 0 0 0 0 0 0 0
1 1 1 1 1 1 1 1 1 1 1 1 1 1 0 0 0 0 0 0 0 0 0 0 0 0 0 0 0 0 0 0 0 0 0 0 0 0 0 0 0 0 0
1 1 1 1 1 1 0 0 0 1 1 1 1 1 0 0 0 0 0 0 0 0 0 0 0 0 0 0 0 0 0 0 0 0 0 0 0 0 0 0 0 0 0
1 1 1 1 1 1 0 0 0 0 1 1 1 1 1 0 0 0 0 0 0 0 0 0 0 0 0 0 0 0 0 0 0 0 0 0 0 0 0 0 0 0 0
1 1 1 1 1 1 0 0 0 1 1 1 1 1 0 0 0 0 0 0 0 0 0 0 0 0 0 0 0 0 0 0 0 0 0 0 0 0 0 0 0 0 0
1 1 1 1 1 1 0 0 0 1 1 1 1 1 0 0 0 0 0 0 0 0 0 0 0 0 0 0 0 0 0 0 0 0 0 0 0 0 0 0 0 0 0
Wind_Speed
2 2 1 1 1 1 2 1 1 2 2 2 1 1 1 2 2 1 3 6 4 3 4 4 5 4 4 4 5 6 6 5 5 4 5 6 6 6 7 7 7 7 7
2 1 2 1 1 1 1 1 1 1 1 1 1 1 0 1 1 1 1 4 6 4 4 4 5 5 5 4 5 5 6 5 5 4 5 5 6 7 8 8 8 7 7
2 1 1 1 1 1 2 1 1 1 2 2 2 1 1 1 1 0 0 1 3 6 5 4 4 4 5 5 5 5 5 5 5 5 5 6 6 7 7 8 8 7 6
1 1 1 2 1 1 1 2 1 2 1 1 1 1 1 1 1 1 1 1 1 1 5 5 4 4 5 5 5 4 4 5 5 5 5 5 6 6 7 8 8 8 7
1 1 1 1 1 1 1 1 2 1 1 1 1 1 1 1 1 1 1 1 1 1 0 5 6 4 4 3 3 3 4 4 4 5 5 4 4 4 6 7 7 8 8
2 1 2 2 1 1 1 2 2 1 0 1 0 1 0 1 0 1 0 1 0 0 0 1 3 4 4 3 2 2 3 3 3 3 3 3 3 3 4 6 6 7 8
2 1 0 2 1 1 1 1 1 2 1 1 1 1 1 1 1 0 0 1 1 0 0 0 0 0 3 6 3 2 2 2 2 2 2 3 3 3 3 4 5 6 7
2 2 1 1 1 1 2 1 1 0 1 1 1 1 1 2 1 1 1 0 1 1 0 0 0 1 1 1 5 3 2 1 1 1 1 1 1 2 2 3 4 4 6
3 2 2 1 1 1 2 2 1 1 0 1 1 2 1 1 0 1 0 0 0 1 1 0 1 1 1 1 2 4 2 1 0 0 0 0 2 2 2 2 3 3 5
3 3 3 2 2 1 1 2 2 1 2 1 1 0 2 2 2 0 1 1 1 1 1 2 1 1 1 1 2 3 2 2 1 0 0 0 1 2 2 3 3 3 4
3 3 3 3 2 2 1 1 1 2 2 1 1 0 1 1 2 2 1 1 1 1 1 1 1 1 1 1 1 4 3 2 1 0 0 0 0 1 2 3 3 3 3
3 3 3 3 3 2 2 2 3 3 2 2 2 2 1 1 2 2 2 2 1 1 1 1 2 1 1 1 2 5 4 3 2 1 0 0 1 0 1 2 2 3 3
3 3 3 3 3 3 3 3 3 3 3 3 3 2 2 2 2 2 2 2 2 1 1 1 1 1 1 1 2 4 4 4 2 1 1 1 0 0 0 1 1 2 2
2 2 3 4 4 4 4 3 3 3 3 3 4 3 3 2 2 2 2 2 2 2 1 1 1 1 1 1 2 4 3 5 3 2 2 1 1 0 0 1 1 1 1
2 3 3 3 3 3 3 3 3 3 3 4 3 4 4 2 2 2 2 3 3 3 2 1 1 0 1 0 1 2 2 4 4 3 3 2 1 1 1 1 1 1 1
3 3 3 3 3 3 4 4 3 3 4 3 3 3 3 3 2 3 3 3 3 4 3 1 1 1 1 1 2 2 2 5 5 5 4 3 3 2 2 2 2 2 1
3 3 3 3 4 4 4 3 4 3 4 4 4 3 4 4 3 3 3 2 3 3 3 2 1 0 1 2 1 2 3 3 3 7 5 4 3 3 2 2 2 2 1
4 3 3 4 4 4 3 4 4 4 4 4 4 3 4 3 3 3 3 3 3 3 4 3 2 1 2 2 2 3 2 2 2 6 7 6 5 4 3 2 2 2 1
4 4 4 4 4 3 3 4 4 4 4 4 3 3 3 3 3 2 3 3 3 2 2 3 3 1 2 2 2 3 3 2 3 5 8 8 7 6 5 4 4 3 2
4 4 4 4 4 3 3 3 4 4 4 3 3 3 3 3 3 3 3 3 3 3 3 3 2 2 2 1 2 3 2 3 3 2 2 4 7 9 8 7 6 5 4
3 3 3 3 3 3 3 2 3 3 3 3 3 3 2 1 2 2 3 2 3 3 3 2 2 2 1 1 3 3 2 2 3 3 2 3 5 5 6 8 8 7 6
3 3 4 4 4 3 1 0 4 3 3 3 3 3 3 4 2 3 2 2 3 4 3 3 3 2 3 3 3 3 3 3 2 1 3 3 3 4 4 4 6 7 6
3 3 3 4 4 2 2 2 4 4 3 3 3 3 3 1 3 2 2 4 4 4 5 5 4 4 4 3 4 5 4 4 3 2 3 4 3 4 3 3 8 8 7
3 4 4 4 3 2 3 4 4 5 3 3 3 2 2 1 0 2 3 3 3 3 4 5 4 4 4 3 4 5 4 4 4 3 3 4 3 3 3 3 9 9 9
3 4 4 4 3 2 3 3 4 4 2 2 2 1 1 1 2 1 3 3 3 3 2 3 3 3 3 3 4 4 4 4 4 3 2 3 3 3 3 3 5 10 10
3 4 3 3 3 3 3 4 5 3 2 2 2 2 2 1 1 1 3 3 3 3 3 2 3 5 5 5 7 6 5 4 4 3 1 2 3 3 3 2 2 4 6
Wind_Direction
135 125 112 109 125 113 138 139 129 130 156 166 166 146 177 167 178 179 138 148 176 215 236 233 226 223 216 214 225 231 232 227 222 221 223 226 228 230 224 220 217 215 218
118 129 139 134 94 91 85 120 141 154 160 122 124 120 183 168 156 191 177 159 176 207 229 237 236 223 222 219 225 232 232 226 220 220 227 231 232 234 229 224 221 219 217
118 138 123 131 102 104 119 130 131 146 147 140 126 118 110 115 119 157 239 250 182 185 199 216 223 226 225 218 224 231 225 218 221 222 228 234 237 237 232 225 221 216 212
117 138 104 93 106 120 127 138 145 126 116 115 102 98 113 130 145 181 170 192 265 220 174 183 205 218 222 226 225 225 224 221 225 228 228 234 241 240 231 228 222 212 208
132 142 90 89 144 121 120 123 102 117 122 114 130 151 155 126 146 128 125 137 171 271 189 153 174 194 218 217 215 220 225 224 227 230 230 232 243 234 223 222 218 210 207
143 161 133 116 134 114 104 88 98 95 127 214 217 95 130 113 99 93 204 128 114 249 51 104 164 170 175 180 200 219 227 232 236 230 229 234 238 226 218 213 208 208 209
159 195 120 135 166 115 98 115 126 131 132 153 172 158 146 144 96 109 54 23 66 358 26 80 17 268 167 166 168 201 220 236 253 251 250 246 241 227 209 201 198 202 203
204 184 189 193 157 146 136 139 153 313 98 98 298 256 181 156 167 90 118 124 352 328 305 131 120 237 274 170 131 152 190 228 261 272 278 268 196 179 189 199 201 192 193
206 218 200 224 202 211 153 185 188 202 167 146 329 318 327 42 347 148 175 215 307 321 303 263 202 218 238 219 153 145 158 193 222 236 198 156 149 158 170 175 186 190 189
208 204 213 214 232 233 166 205 161 225 231 208 157 319 341 351 301 283 205 174 195 275 308 296 259 203 239 212 143 110 130 144 170 206 120 150 157 166 180 182 191 195 196
209 208 208 215 224 232 221 264 201 242 247 274 292 262 232 222 258 287 309 301 258 265 283 270 278 267 206 204 196 108 124 139 145 131 43 9 29 173 186 195 201 204 203
200 203 212 213 220 229 217 230 230 220 250 276 285 286 273 270 273 281 281 274 304 333 291 288 260 244 217 202 122 112 137 144 147 198 214 317 358 78 193 203 210 209 206
199 197 216 215 223 226 229 233 228 246 230 239 255 266 269 269 278 285 287 301 308 293 236 238 252 253 239 211 135 137 152 150 160 193 218 231 263 352 205 202 205 199 197
223 196 216 222 227 230 232 227 239 233 234 244 255 264 268 263 265 267 274 289 287 262 230 259 259 252 279 253 105 195 168 151 165 185 203 212 225 228 165 164 155 162 168
226 203 217 224 228 227 234 232 239 240 240 246 250 239 252 258 254 266 269 275 283 289 298 213 265 217 258 273 144 214 215 140 175 190 187 185 178 167 143 135 140 131 137
245 235 228 227 227 227 228 237 243 233 240 241 255 269 263 260 261 257 259 263 271 281 290 294 288 295 299 264 156 234 227 162 186 186 183 184 182 180 165 157 140 127 131
237 238 230 232 232 230 233 238 255 249 246 251 255 250 257 278 275 274 266 260 256 263 271 285 299 295 234 265 228 244 241 227 184 172 176 183 187 181 167 152 146 145 151
233 233 236 231 234 233 238 242 250 251 251 251 252 256 260 257 265 278 282 273 270 266 262 278 282 268 249 239 245 253 244 224 230 163 177 185 185 184 182 176 166 161 170
229 230 231 235 235 235 238 246 247 246 249 254 254 256 262 263 262 277 278 282 278 268 263 265 268 275 259 237 242 244 241 236 236 179 180 188 190 196 197 194 185 182 191
230 233 230 235 238 242 248 249 248 248 250 255 256 256 258 260 262 266 261 267 279 277 260 259 260 252 246 232 250 247 238 222 243 229 199 201 192 198 201 199 192 192 199
228 229 235 234 238 238 243 259 259 246 251 250 243 249 251 260 324 293 294 286 271 267 264 260 263 269 261 253 255 255 254 249 243 235 228 217 202 205 196 198 198 203 207
232 228 229 233 236 244 91 271 280 260 247 248 240 242 226 198 197 209 245 285 290 271 279 276 265 271 268 266 273 270 266 264 266 224 248 246 228 223 212 211 176 189 207
227 228 228 230 236 226 162 194 245 260 251 252 251 251 261 146 203 231 202 214 228 235 249 266 274 274 271 270 272 266 262 270 284 276 253 259 239 237 231 191 165 183 202
220 225 231 236 236 217 170 196 230 227 237 233 233 231 255 262 346 295 263 253 253 238 231 240 259 266 269 268 260 265 267 264 259 239 231 259 259 260 253 215 172 186 200
231 228 227 233 238 217 168 188 230 224 210 212 217 200 222 231 79 311 261 264 271 262 211 223 259 267 278 262 261 259 252 251 259 253 220 261 270 271 256 232 188 189 202
231 236 228 227 230 228 171 183 224 241 222 220 197 186 145 172 106 203 249 256 268 281 290 255 235 230 233 222 217 240 258 263 271 270 228 258 269 278 266 242 234 211 209